Location: White Sands National Monument
(32.8140°N, 106.2665°W)
Time: 14:42:31
(UTC-06:00)

Daily predictions for brighter satellites

Satellite Brightness Start Highest point End
(mag) Time Altitude Azimuth Time Altitude Azimuth Time Altitude Azimuth
COSMOS 2455 2.9 20:22:36 10° NNW 20:28:36 69° ENE 20:34:33 10° SSE
Aurora 2 Rocket 4.3 20:22:54 10° WSW 20:29:08 47° S 20:37:48 10° ESE
Helios 1B rocket 3.4 20:26:59 10° NE 20:30:34 28° E 20:34:08 10° SSE
NOSS 2-2 (E) 4.4 20:29:03 10° SW 20:32:55 53° WNW 20:37:12 10° NNE
Cosmos 1544 Rocket 3.5 20:38:12 10° N 20:42:32 81° E 20:46:52 10° S
Cosmos 2369 Rocket 3.8 20:38:37 10° NW 20:43:42 35° WSW 20:48:47 10° SSW
CZ-3A R/B 2.4 20:36:29 10° SSW 20:44:16 36° SE 20:47:05 10° ENE
Cosmos 1943 Rocket 2.5 20:41:35 10° NNW 20:47:08 66° WSW 20:52:35 10° S
Cosmos 2315 Rocket 4.5 20:41:34 10° SSW 20:47:47 68° W 20:54:06 10° N
Cosmos 405 Rocket 2.7 20:44:56 10° S 20:48:35 55° E 20:52:18 10° NNE
Resurs 1-3 3.7 20:45:05 10° S 20:49:27 81° WSW 20:53:52 10° NNW
Aureole 1 Rocket 2.6 20:46:17 10° S 20:49:41 44° ESE 20:52:38 10° NNE
Cosmos 2074 Rocket 4.5 20:45:47 10° N 20:51:41 42° E 20:57:35 10° SSE
Cosmos 1500 3.6 20:50:21 10° NNW 20:54:04 63° W 20:57:46 10° S
Tiangong 2 3.4 20:51:58 10° W 20:54:42 25° NNW 20:57:25 10° NE
Cosmos 2184 Rocket 4.4 20:49:03 10° N 20:55:03 44° E 21:00:56 10° SSE
Cosmos 1441 Rocket 3.8 20:53:59 10° SSE 20:57:22 34° E 21:00:46 10° NNE
Cosmos 923 Rocket 4.4 20:54:37 10° SSW 20:59:55 71° WNW 21:05:14 10° NNE
Meteor 1-19 Rocket 4.2 20:54:19 10° S 21:00:06 74° E 21:05:51 10° NNE
Resurs 01 Rocket 2.6 20:59:05 10° S 21:03:21 47° W 21:07:38 10° NNW
ERS-1 Rocket 4.2 21:01:28 14° ESE 21:04:32 25° ENE 21:08:35 10° NNE
Cosmos 1455 Rocket 3.6 21:03:10 10° NNW 21:07:26 59° W 21:11:41 10° S
Meteor 1-29 2.8 21:07:22 10° NNE 21:10:44 74° ESE 21:14:04 10° S
CZ-4B DEB 4.4 21:09:08 13° SSE 21:12:13 86° ENE 21:15:46 10° N
CENTAUR R/B 3.2 21:09:43 10° NNW 21:17:52 88° ENE 21:24:52 17° SSE
Nadezhda 1 Rocket 4.0 21:12:45 10° S 21:19:01 68° E 21:25:22 10° NNE
COSMOS 2406 4.3 21:16:32 10° SW 21:22:03 48° WNW 21:27:34 10° N
CZ-4B DEB 2.4 21:20:53 27° SSE 21:22:19 76° E 21:25:18 10° N
ASTRO E2 3.1 21:19:20 10° W 21:23:11 47° SSW 21:24:51 28° SE
Cosmos 2082 Rocket 3.3 21:23:35 21° ESE 21:24:33 22° E 21:28:48 10° NE
Cosmos 1743 3.1 21:22:59 10° NNW 21:26:51 63° W 21:30:09 14° S
ISS -0.6 21:27:16 10° WNW 21:29:35 18° NW 21:31:54 10° N
CRYOSAT 2 4.5 21:28:05 23° SSE 21:30:57 56° E 21:35:41 10° N
Cosmos 1238 Rocket 4.1 21:26:06 10° S 21:32:48 84° E 21:39:25 10° N
ASTEX 1 3.3 21:34:37 23° SSE 21:37:42 73° E 21:42:34 10° N
SAR-Lupe-4 4.1 21:35:32 21° S 21:37:44 56° W 21:41:17 10° NNW
SL-27 R/B 4.2 21:35:15 10° SW 21:38:37 35° WNW 21:42:00 10° N
Helios 1A 3.8 21:35:29 13° S 21:38:59 48° W 21:43:04 10° NNW
Cosmos 2154 Rocket 4.2 21:33:01 10° N 21:39:13 53° E 21:42:32 27° SE
OAO 2 Rocket 3.4 21:36:03 10° W 21:40:58 70° N 21:44:04 23° E
H-2A R/B 3.5 21:40:27 18° E 21:41:26 19° ENE 21:44:53 10° NNE
YAOGAN 6 2.4 21:41:01 40° S 21:42:11 88° W 21:45:42 10° NNW
Cosmos 1939 Rocket 3.5 21:40:11 18° S 21:42:46 49° W 21:46:33 10° NNW
Cosmos 921 Rocket 4.3 21:45:19 10° NNE 21:49:00 25° ENE 21:49:22 25° ENE
Cosmos 1666 3.5 21:45:38 10° NNW 21:49:15 48° W 21:51:14 23° SSW
Cosmos 967 Rocket 4.4 21:43:49 10° SSW 21:50:04 87° WNW 21:56:23 10° NNE
Okean 1-7 Rocket 4.2 21:48:27 11° SSW 21:52:38 57° W 21:57:04 10° N
Cosmos 1892 Rocket 3.7 21:52:30 46° SE 21:53:21 54° E 21:57:40 10° NNE
Meteor 2-9 Rocket 4.4 21:52:11 10° NNW 21:57:42 71° W 22:01:06 25° S
Cosmos 1437 Rocket 2.6 21:56:44 10° N 22:00:35 66° E 22:00:44 65° E
Cosmos 1833 Rocket 2.9 22:00:38 41° SE 22:01:34 45° ESE 22:06:53 10° NE
Cosmos 2056 Rocket 3.6 21:58:29 10° N 22:03:34 58° ENE 22:04:39 47° ESE
PSLV R/B 4.3 22:02:36 10° NW 22:05:22 37° NNE 22:05:22 37° NNE
DNEPR-1 R/B 4.2 22:01:34 10° NW 22:05:48 50° WSW 22:07:16 36° SSW
MetOp-A 4.0 22:04:46 43° SSE 22:06:36 81° ENE 22:11:59 10° N
Cosmos 1606 Rocket 3.3 22:05:41 10° N 22:10:00 78° E 22:10:24 70° SE
Cosmos 2341 Rocket 4.0 22:05:49 10° N 22:12:11 73° E 22:14:23 43° SSE
Cosmos 405 4.2 22:10:38 10° NNW 22:13:55 36° W 22:14:30 33° WSW
Cosmos 1515 3.8 22:15:55 66° WSW 22:16:07 68° W 22:19:54 10° N
Cosmos 1066 Rocket 4.2 22:16:09 51° ESE 22:16:39 53° E 22:22:04 10° NNE
COSMOS 2487 3.0 22:17:34 57° N 22:17:34 57° N 22:20:31 10° NNE
Intercosmos 24 4.2 22:13:51 10° NNW 22:17:20 49° W 22:17:39 48° WSW
Cosmos 1726 Rocket 3.3 22:15:23 10° N 22:19:42 84° E 22:19:44 84° E
Cosmos 2218 Rocket 4.4 22:17:40 10° N 22:23:29 42° E 22:24:06 41° E
YAOGAN 11 4.1 22:29:45 67° WSW 22:29:51 67° WSW 22:34:09 10° NNW
Landsat 7 4.4 22:31:20 42° ENE 22:31:20 42° ENE 22:35:25 10° N
Tiangong 2 4.1 22:30:27 10° NW 22:32:08 14° N 22:33:11 12° NNE
SPOT 1/Viking Rocket 3.4 22:32:18 71° ESE 22:32:38 74° ENE 22:37:46 10° N
Cosmos 839 Rocket 4.4 22:27:11 10° NNW 22:34:01 75° ENE 22:36:25 49° SE
Cosmos 2058 Rocket 3.1 22:30:04 10° N 22:34:08 75° N 22:34:08 75° N
Cosmos 1452 Rocket 4.0 22:30:30 10° N 22:35:24 45° ENE 22:35:24 45° ENE
Cosmos 2181 Rocket 4.3 22:34:12 31° SSW 22:37:25 66° W 22:43:41 10° N
Cosmos 1980 Rocket 3.8 22:33:41 10° NNE 22:37:50 21° ENE 22:38:08 21° ENE
ARGOS 3.4 22:40:02 54° SSW 22:40:59 63° WSW 22:46:22 10° NNW
ERS-1 Rocket 4.5 22:41:27 24° SW 22:43:08 29° W 22:47:29 10° NW
Terra 2.7 22:46:49 39° NE 22:46:49 39° NE 22:50:26 10° N
SPOT 5 3.4 22:48:43 45° W 22:48:43 45° W 22:52:38 10° NNW
H-2A R/B 3.3 22:52:19 37° NNE 22:52:19 37° NNE 22:55:28 10° N
USA 267 4.3 22:49:43 10° NE 22:52:59 28° ENE 22:52:59 28° ENE
Cosmos 864 Rocket 4.3 22:58:57 10° N 23:05:15 82° E 23:05:17 82° E
Cosmos 2082 Rocket 3.3 23:05:18 23° WSW 23:08:17 40° WNW 23:13:36 10° N
Meteor 2-21 4.3 23:03:01 10° N 23:09:00 86° WNW 23:09:00 86° WNW
Meteor 2-21 Rocket 4.4 23:07:06 10° N 23:12:47 77° NE 23:12:47 77° NE
Cosmos 2278 4.2 23:07:52 10° NNW 23:13:11 50° W 23:13:11 50° W
SL-19 R/B 4.4 23:11:45 10° N 23:16:21 64° NNW 23:16:21 64° NNW
Meteor 1-22 Rocket 4.4 23:12:28 10° N 23:16:58 64° NNW 23:16:58 64° NNW
H-2A R/B 3.1 23:21:05 37° W 23:21:05 37° W 23:25:10 10° NNW
USA 229 DEB 4.3 23:18:58 10° NNW 23:25:53 48° NE 23:26:31 47° ENE
USA 229 4.3 23:19:04 10° NNW 23:25:59 48° NE 23:26:37 47° ENE
Cosmos 2366 rocket 4.2 23:22:16 10° NNW 23:28:15 59° W 23:28:15 59° W
Cosmos 1697 Rocket 3.2 23:28:13 10° NNW 23:32:41 56° NW 23:32:41 56° NW
CZ-4B R/B 4.3 23:32:59 10° N 23:36:44 48° N 23:36:44 48° N
SL-16 R/B 3.9 23:35:40 10° N 23:39:29 23° NE 23:39:29 23° NE
